Regional Weather Roundup
Issued by NWS

Home | Current Version | Previous Version | Graphics & Text | Print | Product List | Glossary On
Versions: 1 2 3 4 5 6 7 8 9 10 11 12 13 14 15 16 17 18 19 20 21 22 23 24 25 26 27
000
ASUS45 KBOU 230407
RWRCO

WEATHER ROUNDUP FOR COLORADO
NATIONAL WEATHER SERVICE DENVER/BOULDER CO
1000 PM MDT SUN OCT 22 2017

NOTE: "FAIR" INDICATES FEW OR NO CLOUDS BELOW 12000 FEET WITH NO
SIGNIFICANT WEATHER AND/OR OBSTRUCTIONS TO VISIBILITY.

COZ001>005-013-030-031-230500-
...NORTHWEST COLORADO...

CITY           SKY/WX    TMP DP  RH WIND       PRES   REMARKS
CRAIG          MOCLDY    43  30  60 W6        30.39R
HAYDEN         CLOUDY    49  26  41 CALM      30.41R
MEEKER         MOCLDY    43  28  55 E3        30.42R
RABBIT EARS PA CLOUDY    32  27  80 W15G26    30.48S WCI  22
STEAMBOAT SPGS CLOUDY    44  32  63 CALM      30.40R
WALDEN         NOT AVBL
$$

COZ006>008-011-230500-
...WEST CENTRAL VALLEYS...

CITY           SKY/WX    TMP DP  RH WIND       PRES   REMARKS
GRAND JUNCTION FAIR      47  19  33 E6        30.40R
MONTROSE       FAIR      44  26  49 CALM      30.45R
EAGLE          FAIR      41  27  57 E6        30.46R
RIFLE          FAIR      44  29  55 E5        30.43R
DELTA          FAIR      47  20  33 NE8       30.42R
NUCLA          FAIR      46  19  34 E10       30.47S
$$

COZ017>023-064>068-230500-
...SOUTHWEST COLORADO...

CITY           SKY/WX    TMP DP  RH WIND       PRES   REMARKS
DURANGO        FAIR      41  20  43 NE5       30.42R
CORTEZ         FAIR      39  20  46 NE10      30.44S
PAGOSA SPRINGS FAIR      37  18  46 CALM      30.48R
TELLURIDE      FAIR      40  17  39 SE6       30.59R
WOLF CREEK PAS FAIR      32  18  55 SW9       30.67S WCI  24
$$

COZ009-010-012-014-032>034-037-058>063-230500-
...CENTRAL COLORADO...

CITY           SKY/WX    TMP DP  RH WIND       PRES   REMARKS
ASPEN          FAIR      36  29  75 S7        30.48R
BUENA VISTA    FAIR      51  17  26 W17G24    30.37S
COPPER MTN     CLOUDY    34  23  64 MISG      30.59R
BERTHOUD PASS  MOCLDY    30  19  64 NW37G47   30.51F WCI  14
COTTONWOOD PAS FAIR      50  18  27 W21G37    30.44R
GUNNISON       FAIR      39  20  46 N6        30.48R
KREMMLING      CLOUDY    52  27  37 W9        30.42R
LEADVILLE      FAIR      37  17  44 N10       30.49R
MONARCH PASS   FAIR      32  14  47 W46G52    30.64R WCI  15
SALIDA         FAIR      53  17  24 CALM      30.43R
SUNLIGHT       FAIR      32  19  59 SW10G20   30.61R WCI  24
WILKERSON PASS FAIR      39  19  45 MISG      30.46F
$$

COZ069>075-230500-
...SAN LUIS VALLEY/SANGRE DE CRISTO MOUNTAINS...

CITY           SKY/WX    TMP DP  RH WIND       PRES   REMARKS
ALAMOSA        FAIR      33  17  51 CALM      30.41R
DEL NORTE      FAIR      40  18  40 W7        30.44R
LA VETA PASS   FAIR      41  18  38 S29G41    30.56F
SAGUACHE       FAIR      45  19  36 CALM      30.44S
$$

COZ035-036-038>040-230500-
...NORTHERN COLORADO FRONT RANGE...

CITY           SKY/WX    TMP DP  RH WIND       PRES   REMARKS
DENVER INTL AP MOCLDY    60  24  25 NW8       30.14R
DMNS CITY PARK   N/A     61  24  24 N7G13     30.14R
AURORA         MOCLDY    52  26  37 S9        30.15S
FRONT RANGE AP FAIR      61  27  27 NW12G21   30.15S
ERIE MUNI ARPT FAIR      62  23  22 SW10      30.18S
BOULDER MUN AP FAIR      61  27  27 E3        30.12S
CENTENNIAL     MOCLDY    61  23  23 S5        30.16R
BROOMFIELD     MOCLDY    66  25  20 W22G29    30.15S
FORT COLLINS   FAIR      52  32  46 NE9       30.12R
LONGMONT       FAIR      65  24  21 W9G22     30.14R
$$

COZ041-046-047-076>085-087-088-230500-
...PIKES PEAK/PALMER DIVIDE AND SOUTHERN FOOTHILLS...

CITY           SKY/WX    TMP DP  RH WIND       PRES   REMARKS
COLO. SPRINGS  FAIR      45  27  49 NE7       30.22R
A. F. ACADEMY  FAIR      54  22  29 E5        30.21R
SCHRIEVER AFB  FAIR      49  24  37 CALM      30.21S
CHEYENNE MTN   FAIR      56  22  26 S3        30.19R
ELLICOTT         N/A    N/A N/A N/A NE5       30.19S
FALCON         FAIR      46  23  40 CALM      30.25R
FORT CARSON    FAIR      49  29  45 NW6       30.18R
LIMON          FAIR      36  28  73 N5        30.15S
MONUMENT HILL  FAIR      41  23  48 S8        30.25S
CANON CITY     FAIR      61  27  27 W6        30.20S
WALSENBURG     FAIR      63  16  16 W17G29    30.23S
TRINIDAD       FAIR      54  30  40 W16       30.18S
$$

COZ042>045-048>051-090-091-230500-
...NORTHEAST COLORADO...

CITY           SKY/WX    TMP DP  RH WIND       PRES   REMARKS
GREELEY ARPT   FAIR      48  31  51 N3        30.11R
AKRON          FAIR      50  26  39 W8        30.09S
BURLINGTON     FAIR      45  25  45 SW9       30.09S
WRAY           NOT AVBL
YUMA           FAIR      43  30  61 W7        30.07S
STERLING       NOT AVBL
HOLYOKE        FAIR      45  32  61 W9        30.05R
FORT MORGAN    FAIR      52  24  33 W7        30.11R
$$

COZ086-089-092>099-230500-
...SOUTHEAST COLORADO...

CITY           SKY/WX    TMP DP  RH WIND       PRES   REMARKS
PUEBLO         FAIR      54  26  34 N8        30.12R
LA JUNTA       FAIR      50  30  46 N5        30.10R
LAMAR          FAIR      41  29  62 SW6       30.07R
SPRINGFIELD      N/A     50  31  48 SW8       30.11S
$$




USA.gov is the U.S. government's official web portal to all federal, state and local government web resources and services.